SCOUT A DEB, 2140

Orbit data source: Space-Track

SCOUT A DEB, 2140 is space debris in LEO originally from a launch on Fri, 28 Jan 1966 UTC launched from the Air Force Western Test Range (AFWTR). Debris objects in space refer to the collection of defunct objects orbiting the Earth. Examples of debris include non-operational satellites, rocket bodies, and fragments generated from explosions, collisions, or faulty payload assembly.

Loading next visibility...
Identifier
2140, 1966-005C
Orbit
LEO
Country
Flag of USUS
Related business
Manufacturer
Unknown
Mission
Spacecraft
Bus & Motor
Unknown
Mass
Unknown
Launch date (UTC)
1966-01-28 (60 years ago)
Launch vehicle
Unknown
Launch site
Air Force Western Test Range (AFWTR)
Object type
Payload
Rocket body
Debris
Shape & HBR
Unknown
Radar Cross Section
Small (<0.1 m²)

Expand to show TLE details & history
Last TLE update: 9 hours ago

TLE from 9 hours ago
0 SCOUT A DEB
1 02140U 66005C   25260.90405463  .00000321  00000-0  37423-3 0  9998
2 02140  89.9501  51.7644 0314912 251.5677 105.1003 13.48283098921762
Epoch: 2025-09-17T21:41Z
TLE epoch observation values (Epoch: 2025-09-17T21:41:50.32Z)
Latitude
-0.00005°
Longitude
89.23142°
Altitude
1,149.526 km
Speed
7.245 km/s
True Right ascension
03h 27m 03s
True Declination
0° 00' 00"
Sunlit
Object was in full shadow at epoch
Visualization orbit readout
Latitude
Unknown
Longitude
Unknown
Altitude
Unknown
Speed
Unknown
Apparent Right ascension
Unknown
Apparent Declination
Unknown
Sunlit
N/A
Visualization observer readout
Local Sidereal Time
23:28:21
Azimuth
Unknown
Elevation
Unknown
Doppler factor
Unknown
Orbital elements
Apogee altitude
1,310.358 km
Perigee altitude
840.902 km
Semi-major axis
7,453.767 km
Eccentricity
0.03149
Inclination
89.9501°
RAAN
51.7644°
Arg. of periapsis
251.5677°
True anomaly
108.54687°
Mean anomaly
105.1003°
Eccentric anomaly
106.82735°
Mean motion
3.37271 °/min
Orbital period
106.74 mins
BSTAR
0.00037423
Loading maneuver chart data...
Computing Atmospheric mass density...
Loading historical data...
Loading historical data...
Loading historical data...
Loading historical data...
Loading historical data...
Loading historical data...
Loading historical data...

Documentation

Showing up to 5 results
|